EXS42NU EGCC-LIEO

Flight info

Callsign EXS42NU
Flight time 2h 21m
Altitude 39000
Route SANBA N859 HON UL612 VEULE DCT KOTAP UM728 KETEX DCT KOTIS DCT KUKOR DCT UTUVA DCT TITVA DCT NOQAS DCT OTROT DCT RETNO DCT KOLON DCT LOKDU M623 MINKA
Aircraft B738/M-SDE2E3FGHIRWXY/LB1

Departure

Time 2026-05-06 03:55
Airport Manchester Airport (EGCC)

Arrival

Time 2026-05-06 06:17
Airport Olbia Costa Smeralda Airport (LIEO)
Time Latitude Longitude Altitude Speed Heading
2026-05-06 03:12 53.36808 -2.28687 232 ft 0 kts 315°
2026-05-06 03:42 53.36800 -2.28673 232 ft 3 kts 315°
2026-05-06 03:42 53.36784 -2.28647 232 ft 2 kts 314°
2026-05-06 03:42 53.36771 -2.28622 233 ft 3 kts 288°
2026-05-06 03:43 53.36771 -2.28592 232 ft 3 kts 235°
2026-05-06 03:43 53.36783 -2.28568 232 ft 1 kts 224°
2026-05-06 03:43 53.36786 -2.28563 232 ft 0 kts 224°
2026-05-06 03:47 53.36772 -2.28586 232 ft 7 kts 224°
2026-05-06 03:47 53.36721 -2.28670 232 ft 12 kts 224°
2026-05-06 03:47 53.36658 -2.28750 232 ft 11 kts 208°
2026-05-06 03:48 53.36585 -2.28756 233 ft 11 kts 142°
2026-05-06 03:48 53.36532 -2.28666 234 ft 11 kts 133°
2026-05-06 03:48 53.36480 -2.28577 232 ft 10 kts 135°
2026-05-06 03:48 53.36427 -2.28473 232 ft 13 kts 125°
2026-05-06 03:49 53.36362 -2.28345 233 ft 15 kts 135°
2026-05-06 03:49 53.36288 -2.28222 232 ft 15 kts 135°
2026-05-06 03:49 53.36218 -2.28104 232 ft 14 kts 135°
2026-05-06 03:49 53.36151 -2.27990 232 ft 13 kts 135°
2026-05-06 03:50 53.36082 -2.27895 234 ft 13 kts 171°
2026-05-06 03:50 53.35997 -2.27895 232 ft 13 kts 146°
2026-05-06 03:50 53.35917 -2.27847 232 ft 13 kts 178°
2026-05-06 03:50 53.35823 -2.27862 232 ft 15 kts 187°
2026-05-06 03:51 53.35711 -2.27882 234 ft 17 kts 186°
2026-05-06 03:51 53.35582 -2.27903 234 ft 20 kts 186°
2026-05-06 03:51 53.35443 -2.27949 233 ft 21 kts 212°
2026-05-06 03:51 53.35340 -2.28110 232 ft 20 kts 224°
2026-05-06 03:52 53.35244 -2.28274 232 ft 19 kts 229°
2026-05-06 03:52 53.35164 -2.28447 232 ft 19 kts 232°
2026-05-06 03:52 53.35081 -2.28613 232 ft 18 kts 232°
2026-05-06 03:52 53.34999 -2.28769 232 ft 18 kts 225°
2026-05-06 03:53 53.34913 -2.28909 232 ft 17 kts 226°
2026-05-06 03:53 53.34835 -2.29053 232 ft 16 kts 229°
2026-05-06 03:53 53.34765 -2.29198 232 ft 16 kts 231°
2026-05-06 03:53 53.34689 -2.29321 232 ft 15 kts 207°
2026-05-06 03:54 53.34588 -2.29332 232 ft 14 kts 165°
2026-05-06 03:54 53.34548 -2.29209 234 ft 14 kts 59°
2026-05-06 03:54 53.34607 -2.29085 233 ft 14 kts 52°
2026-05-06 03:54 53.34759 -2.28770 232 ft 68 kts 51°
2026-05-06 03:55 53.35198 -2.27854 230 ft 132 kts 51°
2026-05-06 03:55 53.35858 -2.26465 482 ft 160 kts 53°
2026-05-06 03:55 53.36548 -2.24983 1240 ft 165 kts 51°
2026-05-06 03:55 53.37285 -2.23496 2060 ft 165 kts 54°
2026-05-06 03:56 53.37678 -2.21613 2522 ft 190 kts 94°
2026-05-06 03:56 53.37096 -2.19479 2753 ft 221 kts 131°
2026-05-06 03:56 53.35792 -2.17861 3024 ft 247 kts 145°
2026-05-06 03:56 53.34132 -2.16824 3618 ft 265 kts 175°
2026-05-06 03:57 53.32305 -2.16982 4459 ft 270 kts 185°
2026-05-06 03:57 53.30397 -2.17311 5014 ft 274 kts 186°
2026-05-06 03:57 53.28485 -2.17640 5898 ft 277 kts 186°
2026-05-06 03:57 53.26552 -2.17968 6695 ft 282 kts 186°
2026-05-06 03:58 53.24601 -2.18282 7396 ft 288 kts 186°
2026-05-06 03:58 53.22605 -2.18590 8331 ft 287 kts 187°
2026-05-06 03:58 53.20604 -2.18908 9176 ft 291 kts 187°
2026-05-06 03:58 53.18571 -2.19233 9929 ft 297 kts 187°
2026-05-06 03:59 53.16491 -2.19564 10493 ft 308 kts 187°
2026-05-06 03:59 53.14273 -2.19918 10669 ft 332 kts 187°
2026-05-06 03:59 53.11902 -2.20289 10981 ft 349 kts 187°
2026-05-06 03:59 53.09725 -2.20624 11536 ft 354 kts 187°
2026-05-06 04:00 53.07259 -2.21002 12307 ft 357 kts 187°
2026-05-06 04:00 53.04778 -2.21385 13054 ft 359 kts 187°
2026-05-06 04:00 53.02268 -2.21578 13779 ft 365 kts 178°
2026-05-06 04:00 52.99754 -2.20850 14430 ft 370 kts 165°
2026-05-06 04:01 52.97362 -2.19211 15104 ft 374 kts 154°
2026-05-06 04:01 52.95046 -2.17209 15792 ft 376 kts 153°
2026-05-06 04:01 52.92723 -2.15153 16399 ft 380 kts 153°
2026-05-06 04:01 52.90381 -2.13076 17017 ft 384 kts 153°
2026-05-06 04:02 52.88014 -2.10991 17629 ft 388 kts 154°
2026-05-06 04:02 52.85619 -2.08900 18268 ft 391 kts 154°
2026-05-06 04:02 52.83199 -2.06801 18821 ft 394 kts 154°
2026-05-06 04:02 52.80762 -2.04697 19368 ft 397 kts 154°
2026-05-06 04:03 52.78307 -2.02584 19909 ft 399 kts 154°
2026-05-06 04:03 52.75829 -2.00459 20438 ft 402 kts 155°
2026-05-06 04:03 52.73337 -1.98325 20971 ft 405 kts 155°
2026-05-06 04:03 52.70833 -1.96183 21544 ft 406 kts 155°
2026-05-06 04:04 52.68318 -1.94034 22041 ft 409 kts 155°
2026-05-06 04:04 52.65775 -1.91866 22514 ft 413 kts 155°
2026-05-06 04:04 52.63247 -1.89712 22988 ft 416 kts 155°
2026-05-06 04:04 52.60672 -1.87519 23480 ft 418 kts 155°
2026-05-06 04:05 52.58077 -1.85312 23897 ft 421 kts 155°
2026-05-06 04:05 52.55469 -1.83097 24301 ft 423 kts 155°
2026-05-06 04:05 52.52847 -1.80873 24712 ft 425 kts 155°
2026-05-06 04:05 52.50212 -1.78641 25105 ft 427 kts 155°
2026-05-06 04:06 52.47562 -1.76400 25510 ft 429 kts 155°
2026-05-06 04:06 52.44903 -1.74154 25897 ft 431 kts 155°
2026-05-06 04:06 52.42232 -1.71899 26262 ft 433 kts 155°
2026-05-06 04:06 52.39545 -1.69636 26631 ft 435 kts 155°
2026-05-06 04:07 52.36844 -1.67365 26990 ft 437 kts 155°
2026-05-06 04:07 52.34127 -1.65091 27334 ft 439 kts 155°
2026-05-06 04:07 52.31392 -1.62838 27674 ft 441 kts 155°
2026-05-06 04:07 52.28641 -1.60590 27985 ft 444 kts 155°
2026-05-06 04:08 52.25874 -1.58334 28297 ft 446 kts 155°
2026-05-06 04:08 52.23086 -1.56062 28590 ft 448 kts 155°
2026-05-06 04:08 52.20294 -1.53785 28882 ft 451 kts 155°
2026-05-06 04:08 52.17481 -1.51491 29199 ft 452 kts 155°
2026-05-06 04:09 52.14667 -1.49198 29515 ft 454 kts 155°
2026-05-06 04:09 52.11829 -1.46887 29810 ft 456 kts 155°
2026-05-06 04:09 52.08990 -1.44579 30087 ft 458 kts 155°
2026-05-06 04:09 52.06136 -1.42264 30364 ft 458 kts 155°
2026-05-06 04:10 52.03293 -1.39949 30702 ft 457 kts 155°
2026-05-06 04:10 52.00461 -1.37644 31110 ft 454 kts 155°
2026-05-06 04:10 51.97642 -1.35354 31475 ft 452 kts 155°
2026-05-06 04:10 51.94821 -1.33074 31754 ft 453 kts 155°
2026-05-06 04:11 51.91997 -1.30800 32027 ft 454 kts 155°
2026-05-06 04:11 51.89172 -1.28528 32350 ft 453 kts 155°
2026-05-06 04:11 51.86391 -1.26296 32661 ft 452 kts 155°
2026-05-06 04:11 51.83569 -1.24032 32958 ft 452 kts 155°
2026-05-06 04:12 51.80754 -1.21775 33219 ft 452 kts 155°
2026-05-06 04:12 51.77939 -1.19523 33528 ft 450 kts 155°
2026-05-06 04:12 51.75141 -1.17286 33899 ft 448 kts 155°
2026-05-06 04:12 51.72348 -1.15056 34150 ft 448 kts 155°
2026-05-06 04:13 51.69551 -1.12825 34307 ft 449 kts 155°
2026-05-06 04:13 51.66752 -1.10596 34517 ft 449 kts 155°
2026-05-06 04:13 51.63953 -1.08370 34748 ft 449 kts 155°
2026-05-06 04:13 51.61167 -1.06076 34945 ft 450 kts 151°
2026-05-06 04:14 51.58560 -1.03290 35142 ft 450 kts 145°
2026-05-06 04:14 51.56036 -1.00304 35330 ft 450 kts 144°
2026-05-06 04:14 51.53515 -0.97310 35628 ft 448 kts 145°
2026-05-06 04:14 51.50994 -0.94376 35860 ft 447 kts 146°
2026-05-06 04:15 51.48463 -0.91483 36022 ft 448 kts 146°
2026-05-06 04:15 51.45912 -0.88645 36138 ft 448 kts 149°
2026-05-06 04:15 51.43157 -0.86322 36271 ft 447 kts 159°
2026-05-06 04:15 51.40273 -0.84485 36498 ft 445 kts 160°
2026-05-06 04:16 51.37380 -0.82699 36695 ft 445 kts 160°
2026-05-06 04:16 51.34489 -0.80914 36818 ft 446 kts 160°
2026-05-06 04:16 51.28732 -0.77304 36963 ft 449 kts 159°
2026-05-06 04:17 51.22902 -0.73597 36965 ft 451 kts 160°
2026-05-06 04:17 51.17084 -0.69895 36970 ft 450 kts 159°
2026-05-06 04:18 51.11270 -0.66209 36969 ft 448 kts 159°
2026-05-06 04:18 51.06460 -0.63156 36971 ft 447 kts 158°
2026-05-06 04:19 51.02871 -0.60053 36975 ft 447 kts 147°
2026-05-06 04:19 51.01166 -0.58224 36990 ft 447 kts 147°
2026-05-06 04:19 50.96036 -0.52610 36974 ft 448 kts 147°
2026-05-06 04:20 50.90889 -0.47053 36973 ft 448 kts 147°
2026-05-06 04:20 50.85704 -0.41545 36961 ft 449 kts 148°
2026-05-06 04:21 50.80504 -0.36053 36970 ft 450 kts 148°
2026-05-06 04:21 50.75290 -0.30555 36976 ft 450 kts 147°
2026-05-06 04:22 50.70067 -0.25067 36961 ft 451 kts 148°
2026-05-06 04:23 50.62212 -0.16833 36957 ft 452 kts 148°
2026-05-06 04:23 50.56964 -0.11349 36959 ft 453 kts 148°
2026-05-06 04:24 50.51701 -0.05863 36962 ft 454 kts 147°
2026-05-06 04:24 50.46468 -0.00422 36952 ft 454 kts 147°
2026-05-06 04:25 50.41214 0.05036 36939 ft 452 kts 147°
2026-05-06 04:25 50.35986 0.10465 36944 ft 450 kts 147°
2026-05-06 04:26 50.30785 0.15859 36942 ft 447 kts 147°
2026-05-06 04:26 50.25604 0.21226 36938 ft 446 kts 147°
2026-05-06 04:27 50.20438 0.26563 36934 ft 444 kts 147°
2026-05-06 04:27 50.15281 0.31860 36933 ft 443 kts 147°
2026-05-06 04:28 50.10136 0.37131 36933 ft 442 kts 147°
2026-05-06 04:28 50.04988 0.42392 36932 ft 443 kts 147°
2026-05-06 04:29 49.99820 0.47662 36939 ft 444 kts 147°
2026-05-06 04:29 49.94638 0.52935 36932 ft 446 kts 147°
2026-05-06 04:30 49.89443 0.58208 36923 ft 446 kts 147°
2026-05-06 04:30 49.84246 0.63498 36924 ft 447 kts 146°
2026-05-06 04:31 49.79162 0.69080 36929 ft 448 kts 144°
2026-05-06 04:31 49.74111 0.74754 36915 ft 449 kts 144°
2026-05-06 04:32 49.69037 0.80402 36918 ft 449 kts 144°
2026-05-06 04:32 49.63943 0.86016 36916 ft 449 kts 145°
2026-05-06 04:33 49.58881 0.91567 36916 ft 449 kts 145°
2026-05-06 04:33 49.53788 0.97135 36902 ft 448 kts 146°
2026-05-06 04:34 49.48702 1.02683 36883 ft 447 kts 145°
2026-05-06 04:34 49.43635 1.08197 36884 ft 445 kts 145°
2026-05-06 04:35 49.38585 1.13680 36880 ft 443 kts 145°
2026-05-06 04:35 49.33554 1.19129 36876 ft 441 kts 145°
2026-05-06 04:36 49.28539 1.24542 36882 ft 440 kts 145°
2026-05-06 04:36 49.23532 1.29934 36888 ft 440 kts 145°
2026-05-06 04:37 49.18517 1.35323 36893 ft 441 kts 146°
2026-05-06 04:37 49.13484 1.40715 36896 ft 442 kts 146°
2026-05-06 04:38 49.08434 1.46113 36887 ft 444 kts 146°
2026-05-06 04:38 49.03352 1.51529 36884 ft 446 kts 146°
2026-05-06 04:39 48.98286 1.56920 36884 ft 448 kts 146°
2026-05-06 04:39 48.93157 1.62360 36875 ft 449 kts 146°
2026-05-06 04:40 48.88018 1.67798 36875 ft 450 kts 146°
2026-05-06 04:40 48.82871 1.73231 36869 ft 451 kts 146°
2026-05-06 04:41 48.77725 1.78650 36872 ft 450 kts 146°
2026-05-06 04:41 48.72589 1.84041 36853 ft 448 kts 146°
2026-05-06 04:42 48.67481 1.89392 36850 ft 445 kts 146°
2026-05-06 04:42 48.62408 1.94695 36844 ft 442 kts 146°
2026-05-06 04:43 48.57370 1.99946 36848 ft 438 kts 147°
2026-05-06 04:43 48.52365 2.05149 36848 ft 436 kts 147°
2026-05-06 04:44 48.47413 2.10284 36830 ft 435 kts 146°
2026-05-06 04:44 48.42389 2.15484 36845 ft 441 kts 147°
2026-05-06 04:45 48.37298 2.20739 36838 ft 445 kts 146°
2026-05-06 04:45 48.32181 2.26010 36836 ft 447 kts 147°
2026-05-06 04:46 48.26793 2.30615 36830 ft 446 kts 160°
2026-05-06 04:46 48.20824 2.33077 36827 ft 445 kts 167°
2026-05-06 04:47 48.14826 2.35376 36826 ft 444 kts 166°
2026-05-06 04:47 48.08923 2.38038 36829 ft 443 kts 162°
2026-05-06 04:48 48.03090 2.41002 36818 ft 442 kts 162°
2026-05-06 04:48 47.97286 2.43948 36823 ft 440 kts 162°
2026-05-06 04:49 47.91492 2.46843 36817 ft 438 kts 162°
2026-05-06 04:49 47.85710 2.49706 36822 ft 437 kts 162°
2026-05-06 04:50 47.79934 2.52553 36816 ft 437 kts 162°
2026-05-06 04:50 47.74156 2.55396 36811 ft 437 kts 163°
2026-05-06 04:51 47.68385 2.58231 36816 ft 437 kts 163°
2026-05-06 04:51 47.62603 2.61065 36814 ft 438 kts 163°
2026-05-06 04:52 47.56848 2.63877 36811 ft 438 kts 163°
2026-05-06 04:52 47.51049 2.66706 36815 ft 439 kts 163°
2026-05-06 04:53 47.45245 2.69532 36821 ft 439 kts 163°
2026-05-06 04:53 47.39424 2.72358 36822 ft 440 kts 163°
2026-05-06 04:54 47.33598 2.75181 36830 ft 441 kts 163°
2026-05-06 04:54 47.27763 2.78002 36828 ft 442 kts 163°
2026-05-06 04:55 47.21917 2.80819 36829 ft 442 kts 163°
2026-05-06 04:55 47.16071 2.83622 36832 ft 442 kts 163°
2026-05-06 04:56 47.10226 2.86415 36838 ft 441 kts 163°
2026-05-06 04:56 47.04393 2.89198 36828 ft 440 kts 163°
2026-05-06 04:57 46.98571 2.91971 36835 ft 439 kts 163°
2026-05-06 04:57 46.92771 2.94727 36834 ft 438 kts 163°
2026-05-06 04:58 46.86989 2.97471 36833 ft 436 kts 164°
2026-05-06 04:58 46.81217 3.00200 36839 ft 435 kts 164°
2026-05-06 04:59 46.75502 3.02896 36846 ft 435 kts 164°
2026-05-06 04:59 46.69745 3.05607 36845 ft 434 kts 164°
2026-05-06 05:00 46.63994 3.08310 36848 ft 435 kts 164°
2026-05-06 05:00 46.58228 3.11013 36854 ft 436 kts 164°
2026-05-06 05:01 46.52458 3.13742 36850 ft 436 kts 162°
2026-05-06 05:01 46.46754 3.16795 36853 ft 437 kts 161°
2026-05-06 05:02 46.41063 3.19934 36851 ft 438 kts 161°
2026-05-06 05:02 46.35352 3.23036 36853 ft 438 kts 162°
2026-05-06 05:03 46.29637 3.26100 36850 ft 438 kts 162°
2026-05-06 05:03 46.23907 3.29162 36854 ft 438 kts 162°
2026-05-06 05:04 46.18228 3.32192 36856 ft 438 kts 162°
2026-05-06 05:04 46.12514 3.35232 36856 ft 437 kts 162°
2026-05-06 05:05 46.06802 3.38264 36860 ft 437 kts 162°
2026-05-06 05:05 46.02023 3.40798 36857 ft 437 kts 162°
2026-05-06 05:06 45.96360 3.43793 36865 ft 436 kts 162°
2026-05-06 05:06 45.90670 3.46798 36860 ft 436 kts 162°
2026-05-06 05:07 45.85061 3.50133 36851 ft 439 kts 152°
2026-05-06 05:07 45.79938 3.54958 36861 ft 440 kts 149°
2026-05-06 05:08 45.74854 3.59854 36859 ft 440 kts 149°
2026-05-06 05:08 45.69750 3.64696 36865 ft 441 kts 149°
2026-05-06 05:09 45.64629 3.69506 36863 ft 440 kts 150°
2026-05-06 05:09 45.59507 3.74297 36866 ft 440 kts 150°
2026-05-06 05:10 45.54377 3.79088 36879 ft 440 kts 150°
2026-05-06 05:10 45.49249 3.83870 36863 ft 440 kts 150°
2026-05-06 05:11 45.44118 3.88645 36857 ft 441 kts 150°
2026-05-06 05:11 45.38983 3.93415 36875 ft 441 kts 149°
2026-05-06 05:12 45.34428 3.99328 36867 ft 449 kts 131°
2026-05-06 05:12 45.30779 4.06564 36859 ft 451 kts 129°
2026-05-06 05:13 45.27148 4.13836 36866 ft 451 kts 129°
2026-05-06 05:13 45.23492 4.20997 36873 ft 451 kts 130°
2026-05-06 05:14 45.19783 4.28227 36861 ft 450 kts 130°
2026-05-06 05:14 45.16133 4.35366 36885 ft 449 kts 130°
2026-05-06 05:15 45.12457 4.42540 36875 ft 450 kts 130°
2026-05-06 05:15 45.08572 4.49441 36876 ft 447 kts 135°
2026-05-06 05:16 45.04471 4.56055 36869 ft 447 kts 136°
2026-05-06 05:16 45.00358 4.62659 36863 ft 447 kts 136°
2026-05-06 05:17 44.96264 4.69286 36870 ft 447 kts 136°
2026-05-06 05:17 44.92182 4.75907 36872 ft 447 kts 136°
2026-05-06 05:18 44.88123 4.82479 36860 ft 447 kts 136°
2026-05-06 05:18 44.84039 4.89077 36876 ft 446 kts 136°
2026-05-06 05:19 44.79944 4.95675 36862 ft 447 kts 137°
2026-05-06 05:19 44.75848 5.02257 36875 ft 447 kts 136°
2026-05-06 05:20 44.71744 5.08842 36878 ft 448 kts 136°
2026-05-06 05:20 44.67636 5.15420 36873 ft 448 kts 136°
2026-05-06 05:21 44.63517 5.21994 36889 ft 448 kts 136°
2026-05-06 05:21 44.59386 5.28573 36887 ft 449 kts 137°
2026-05-06 05:22 44.55251 5.35143 36865 ft 449 kts 137°
2026-05-06 05:22 44.51125 5.41686 36881 ft 448 kts 137°
2026-05-06 05:23 44.46999 5.48211 36887 ft 447 kts 137°
2026-05-06 05:23 44.40839 5.57932 36902 ft 447 kts 137°
2026-05-06 05:24 44.36802 5.64572 36902 ft 451 kts 132°
2026-05-06 05:24 44.33250 5.71836 36850 ft 454 kts 129°
2026-05-06 05:25 44.29786 5.79190 36889 ft 453 kts 130°
2026-05-06 05:25 44.26284 5.86489 36872 ft 452 kts 130°
2026-05-06 05:26 44.22754 5.93738 36892 ft 452 kts 130°
2026-05-06 05:26 44.19212 6.00965 36905 ft 452 kts 130°
2026-05-06 05:27 44.15656 6.08201 36900 ft 453 kts 131°
2026-05-06 05:27 44.12099 6.15428 36892 ft 452 kts 131°
2026-05-06 05:28 44.08538 6.22644 36888 ft 453 kts 131°
2026-05-06 05:28 44.04965 6.29867 36844 ft 453 kts 131°
2026-05-06 05:29 44.01392 6.37072 36870 ft 453 kts 131°
2026-05-06 05:29 43.97814 6.44270 36891 ft 453 kts 131°
2026-05-06 05:30 43.94228 6.51468 36872 ft 453 kts 132°
2026-05-06 05:30 43.90664 6.58606 36884 ft 453 kts 132°
2026-05-06 05:31 43.87073 6.65777 36878 ft 452 kts 132°
2026-05-06 05:31 43.83484 6.72927 36864 ft 451 kts 132°
2026-05-06 05:32 43.79900 6.80051 36863 ft 451 kts 132°
2026-05-06 05:32 43.76309 6.87173 36849 ft 451 kts 133°
2026-05-06 05:33 43.72425 6.93839 36871 ft 437 kts 146°
2026-05-06 05:33 43.67510 6.98439 36851 ft 419 kts 163°
2026-05-06 05:34 43.62208 7.01766 36866 ft 419 kts 163°
2026-05-06 05:34 43.56893 7.05085 36850 ft 420 kts 163°
2026-05-06 05:35 43.51573 7.08439 36855 ft 421 kts 163°
2026-05-06 05:35 43.46249 7.11812 36859 ft 421 kts 163°
2026-05-06 05:36 43.40920 7.15190 36874 ft 422 kts 163°
2026-05-06 05:36 43.35572 7.18571 36860 ft 423 kts 163°
2026-05-06 05:37 43.30255 7.21925 36863 ft 424 kts 163°
2026-05-06 05:37 43.24898 7.25300 36857 ft 424 kts 163°
2026-05-06 05:38 43.19533 7.28672 36840 ft 424 kts 163°
2026-05-06 05:38 43.14167 7.32039 36856 ft 424 kts 163°
2026-05-06 05:39 43.08768 7.35419 36867 ft 423 kts 163°
2026-05-06 05:39 43.03412 7.38766 36865 ft 423 kts 163°
2026-05-06 05:40 42.98064 7.42100 36844 ft 423 kts 163°
2026-05-06 05:40 42.92745 7.45410 36866 ft 423 kts 163°
2026-05-06 05:41 42.87402 7.48730 36870 ft 422 kts 163°
2026-05-06 05:41 42.82059 7.52043 36875 ft 422 kts 163°
2026-05-06 05:42 42.76708 7.55355 36860 ft 422 kts 163°
2026-05-06 05:42 42.71361 7.58659 36866 ft 422 kts 163°
2026-05-06 05:43 42.66020 7.61954 36868 ft 421 kts 163°
2026-05-06 05:43 42.60673 7.65242 36880 ft 422 kts 163°
2026-05-06 05:44 42.55313 7.68534 36882 ft 423 kts 163°
2026-05-06 05:44 42.49961 7.71818 36876 ft 422 kts 163°
2026-05-06 05:45 42.44603 7.75095 36888 ft 422 kts 163°
2026-05-06 05:45 42.39278 7.78349 36889 ft 422 kts 163°
2026-05-06 05:46 42.33923 7.81615 36871 ft 422 kts 163°
2026-05-06 05:46 42.28577 7.84864 36885 ft 421 kts 163°
2026-05-06 05:47 42.23241 7.88106 36680 ft 419 kts 163°
2026-05-06 05:47 42.20602 7.89712 36431 ft 412 kts 163°
2026-05-06 05:47 42.18011 7.91286 36035 ft 406 kts 163°
2026-05-06 05:48 42.15447 7.92841 35686 ft 402 kts 164°
2026-05-06 05:48 42.12904 7.94378 35277 ft 398 kts 164°
2026-05-06 05:48 42.10385 7.95899 34905 ft 395 kts 164°
2026-05-06 05:48 42.07887 7.97406 34522 ft 391 kts 164°
2026-05-06 05:49 42.05419 7.98894 34176 ft 388 kts 164°
2026-05-06 05:49 42.03790 7.99877 33943 ft 385 kts 164°
2026-05-06 05:49 42.01352 8.01345 33540 ft 382 kts 164°
2026-05-06 05:49 41.98919 8.02728 33171 ft 374 kts 169°
2026-05-06 05:50 41.96443 8.03608 32808 ft 361 kts 179°
2026-05-06 05:50 41.93978 8.03984 32479 ft 354 kts 181°
2026-05-06 05:50 41.91535 8.04318 32074 ft 351 kts 181°
2026-05-06 05:50 41.89115 8.04665 31748 ft 348 kts 181°
2026-05-06 05:51 41.86717 8.05021 31397 ft 345 kts 181°
2026-05-06 05:51 41.84342 8.05380 31059 ft 343 kts 181°
2026-05-06 05:51 41.81982 8.05742 30727 ft 340 kts 181°
2026-05-06 05:51 41.79668 8.06102 30402 ft 338 kts 181°
2026-05-06 05:52 41.77342 8.06463 30079 ft 336 kts 181°
2026-05-06 05:52 41.75032 8.06822 29705 ft 333 kts 181°
2026-05-06 05:52 41.72732 8.07177 29340 ft 330 kts 181°
2026-05-06 05:52 41.70464 8.07529 29011 ft 326 kts 181°
2026-05-06 05:53 41.68213 8.07876 28663 ft 323 kts 180°
2026-05-06 05:53 41.65982 8.08226 28322 ft 322 kts 180°
2026-05-06 05:53 41.63760 8.08566 28007 ft 321 kts 180°
2026-05-06 05:53 41.61523 8.08905 27686 ft 329 kts 180°
2026-05-06 05:54 41.59196 8.09256 27338 ft 341 kts 180°
2026-05-06 05:54 41.56863 8.09619 26970 ft 342 kts 180°
2026-05-06 05:54 41.54512 8.09991 26607 ft 339 kts 180°
2026-05-06 05:54 41.52178 8.10360 26257 ft 336 kts 180°
2026-05-06 05:55 41.49868 8.10722 25915 ft 333 kts 180°
2026-05-06 05:55 41.47576 8.11078 25562 ft 331 kts 179°
2026-05-06 05:55 41.45289 8.11434 25232 ft 328 kts 179°
2026-05-06 05:55 41.43028 8.11786 24905 ft 326 kts 179°
2026-05-06 05:56 41.40781 8.12136 24577 ft 324 kts 179°
2026-05-06 05:56 41.38550 8.12493 24270 ft 322 kts 179°
2026-05-06 05:56 41.36331 8.12853 23953 ft 320 kts 179°
2026-05-06 05:56 41.34124 8.13210 23625 ft 318 kts 179°
2026-05-06 05:57 41.31931 8.13566 23266 ft 317 kts 179°
2026-05-06 05:57 41.29749 8.13920 22907 ft 315 kts 179°
2026-05-06 05:57 41.27606 8.14267 22566 ft 313 kts 179°
2026-05-06 05:57 41.25455 8.14614 22214 ft 311 kts 179°
2026-05-06 05:58 41.23317 8.14957 21899 ft 308 kts 179°
2026-05-06 05:58 41.21195 8.15298 21581 ft 306 kts 179°
2026-05-06 05:58 41.19087 8.15637 21262 ft 304 kts 179°
2026-05-06 05:58 41.17026 8.16357 20914 ft 315 kts 159°
2026-05-06 05:59 41.15250 8.18114 20622 ft 326 kts 137°
2026-05-06 05:59 41.13903 8.20567 20329 ft 330 kts 130°
2026-05-06 05:59 41.12655 8.23120 20000 ft 330 kts 129°
2026-05-06 05:59 41.11428 8.25685 19687 ft 329 kts 129°
2026-05-06 06:00 41.10203 8.28245 19371 ft 328 kts 129°
2026-05-06 06:00 41.08982 8.30780 19059 ft 325 kts 130°
2026-05-06 06:00 41.07757 8.33304 18743 ft 326 kts 130°
2026-05-06 06:00 41.06517 8.35848 18422 ft 329 kts 129°
2026-05-06 06:01 41.05260 8.38412 18085 ft 335 kts 129°
2026-05-06 06:01 41.03972 8.41030 17714 ft 339 kts 129°
2026-05-06 06:01 41.02689 8.43642 17374 ft 338 kts 129°
2026-05-06 06:01 41.01411 8.46243 17044 ft 336 kts 129°
2026-05-06 06:02 41.00158 8.48788 16728 ft 334 kts 129°
2026-05-06 06:02 40.98894 8.51354 16403 ft 331 kts 129°
2026-05-06 06:02 40.97637 8.53902 16087 ft 330 kts 129°
2026-05-06 06:02 40.96385 8.56434 15768 ft 328 kts 129°
2026-05-06 06:03 40.95136 8.58958 15454 ft 327 kts 129°
2026-05-06 06:03 40.93893 8.61470 15141 ft 326 kts 129°
2026-05-06 06:03 40.92656 8.63971 14826 ft 324 kts 129°
2026-05-06 06:03 40.91423 8.66459 14511 ft 323 kts 129°
2026-05-06 06:04 40.90191 8.68941 14185 ft 323 kts 130°
2026-05-06 06:04 40.88958 8.71421 13861 ft 323 kts 130°
2026-05-06 06:04 40.87730 8.73897 13513 ft 321 kts 129°
2026-05-06 06:04 40.86508 8.76355 13189 ft 318 kts 129°
2026-05-06 06:05 40.85297 8.78787 12876 ft 316 kts 129°
2026-05-06 06:05 40.84089 8.81210 12571 ft 315 kts 129°
2026-05-06 06:05 40.82859 8.83586 12263 ft 309 kts 137°
2026-05-06 06:05 40.81220 8.85245 11942 ft 291 kts 161°
2026-05-06 06:06 40.79298 8.85971 11436 ft 285 kts 179°
2026-05-06 06:06 40.77330 8.86241 11054 ft 284 kts 180°
2026-05-06 06:06 40.75363 8.86459 10745 ft 283 kts 180°
2026-05-06 06:06 40.73406 8.86675 10449 ft 281 kts 180°
2026-05-06 06:07 40.71459 8.86897 10147 ft 280 kts 180°
2026-05-06 06:07 40.69540 8.87126 10030 ft 273 kts 180°
2026-05-06 06:07 40.67668 8.87353 9747 ft 271 kts 180°
2026-05-06 06:07 40.65803 8.87581 9472 ft 267 kts 180°
2026-05-06 06:08 40.63982 8.87803 9201 ft 264 kts 180°
2026-05-06 06:08 40.62136 8.88050 8911 ft 264 kts 175°
2026-05-06 06:08 40.60439 8.89012 8556 ft 278 kts 148°
2026-05-06 06:08 40.59105 8.90879 8277 ft 285 kts 128°
2026-05-06 06:09 40.58407 8.93339 7980 ft 294 kts 97°
2026-05-06 06:09 40.58784 8.95960 7729 ft 296 kts 62°
2026-05-06 06:09 40.60125 8.97958 7499 ft 292 kts 35°
2026-05-06 06:09 40.61722 8.99623 7287 ft 295 kts 40°
2026-05-06 06:10 40.63200 9.01517 7041 ft 298 kts 46°
2026-05-06 06:10 40.64547 9.03599 6798 ft 298 kts 51°
2026-05-06 06:10 40.65779 9.05787 6553 ft 296 kts 55°
2026-05-06 06:10 40.66932 9.08023 6302 ft 294 kts 56°
2026-05-06 06:11 40.68070 9.10239 6085 ft 291 kts 54°
2026-05-06 06:11 40.69223 9.12418 6024 ft 288 kts 54°
2026-05-06 06:11 40.70362 9.14569 5992 ft 285 kts 54°
2026-05-06 06:11 40.71491 9.16711 5761 ft 284 kts 55°
2026-05-06 06:12 40.72616 9.18846 5569 ft 282 kts 54°
2026-05-06 06:12 40.73728 9.20961 5376 ft 279 kts 54°
2026-05-06 06:12 40.74820 9.23041 5255 ft 270 kts 55°
2026-05-06 06:12 40.75884 9.25070 4896 ft 268 kts 54°
2026-05-06 06:13 40.76939 9.27079 4611 ft 264 kts 54°
2026-05-06 06:13 40.77976 9.29054 4267 ft 259 kts 56°
2026-05-06 06:13 40.78971 9.30955 4070 ft 246 kts 54°
2026-05-06 06:13 40.79945 9.32737 3773 ft 240 kts 54°
2026-05-06 06:14 40.80894 9.34518 3424 ft 235 kts 55°
2026-05-06 06:14 40.81816 9.36289 3064 ft 233 kts 56°
2026-05-06 06:14 40.82720 9.38034 2693 ft 227 kts 56°
2026-05-06 06:14 40.83599 9.39724 2355 ft 220 kts 56°
2026-05-06 06:15 40.84451 9.41364 2008 ft 211 kts 56°
2026-05-06 06:15 40.85257 9.42916 1700 ft 198 kts 55°
2026-05-06 06:15 40.86004 9.44350 1435 ft 180 kts 55°
2026-05-06 06:15 40.86683 9.45655 1135 ft 165 kts 55°
2026-05-06 06:16 40.87320 9.46878 883 ft 158 kts 55°
2026-05-06 06:16 40.87933 9.48058 643 ft 155 kts 55°
2026-05-06 06:16 40.88544 9.49233 381 ft 156 kts 53°
2026-05-06 06:16 40.89160 9.50402 127 ft 154 kts 55°
2026-05-06 06:17 40.89744 9.51537 39 ft 137 kts 54°
2026-05-06 06:17 40.90160 9.52332 32 ft 47 kts 55°
2026-05-06 06:17 40.90316 9.52626 29 ft 13 kts 53°
2026-05-06 06:17 40.90386 9.52686 29 ft 12 kts
2026-05-06 06:18 40.90449 9.52630 29 ft 12 kts 281°
2026-05-06 06:18 40.90452 9.52521 30 ft 12 kts 264°
2026-05-06 06:18 40.90417 9.52426 29 ft 12 kts 235°
2026-05-06 06:18 40.90363 9.52323 31 ft 15 kts 236°
2026-05-06 06:19 40.90302 9.52208 31 ft 15 kts 236°
2026-05-06 06:19 40.90244 9.52094 33 ft 16 kts 235°
2026-05-06 06:19 40.90180 9.51962 34 ft 18 kts 257°
2026-05-06 06:19 40.90204 9.51828 34 ft 13 kts 314°
2026-05-06 06:20 40.90218 9.51754 35 ft 9 kts 242°
2026-05-06 06:20 40.90185 9.51688 33 ft 8 kts 238°
2026-05-06 06:20 40.90209 9.51625 35 ft 8 kts 324°
2026-05-06 06:20 40.90212 9.51621 35 ft 0 kts 325°